Year,Month,Day,Hour,Minute,Value (Times are PST for temperature in C)
2008,10,18,00,00,9.20
2008,10,18,00,01,9.20
2008,10,18,00,02,9.20
2008,10,18,00,03,9.20
2008,10,18,00,04,9.20
2008,10,18,00,05,9.20
2008,10,18,00,06,9.20
2008,10,18,00,07,9.20
2008,10,18,00,08,9.20
2008,10,18,00,09,9.20
2008,10,18,00,10,9.20
2008,10,18,00,11,9.20
2008,10,18,00,12,9.20
2008,10,18,00,13,9.20
2008,10,18,00,14,9.20
2008,10,18,00,15,9.20
2008,10,18,00,16,9.20
2008,10,18,07,02,7.50
2008,10,18,07,03,7.50
2008,10,18,07,04,7.40
2008,10,18,07,05,7.40
2008,10,18,07,06,7.40
2008,10,18,07,07,7.40
2008,10,18,07,08,7.40
2008,10,18,07,09,7.40
2008,10,18,07,10,7.40
2008,10,18,07,11,7.30
2008,10,18,07,12,7.30
2008,10,18,07,13,7.30
2008,10,18,07,14,7.30
2008,10,18,07,15,7.30
2008,10,18,07,16,7.30
2008,10,18,07,17,7.30
2008,10,18,07,18,7.30
2008,10,18,07,19,7.30
2008,10,18,07,20,7.30
2008,10,18,07,21,7.30
2008,10,18,07,22,7.40
2008,10,18,07,23,7.50
2008,10,18,07,24,7.50
2008,10,18,07,25,7.50
2008,10,18,07,26,7.50
2008,10,18,07,27,7.50
2008,10,18,07,28,7.40
2008,10,18,07,29,7.40
2008,10,18,07,30,7.40
2008,10,18,07,31,7.30
2008,10,18,07,32,7.30
2008,10,18,07,33,7.20
2008,10,18,07,34,7.20
2008,10,18,07,35,7.20
2008,10,18,07,36,7.10
2008,10,18,07,37,7.10
2008,10,18,07,38,7.10
2008,10,18,07,39,7.00
2008,10,18,07,40,7.00
2008,10,18,07,41,6.90
2008,10,18,07,42,6.90
2008,10,18,07,43,6.80
2008,10,18,07,44,6.80
2008,10,18,07,45,6.80
2008,10,18,07,46,6.80
2008,10,18,07,47,6.70
2008,10,18,07,48,6.70
2008,10,18,07,49,6.60
2008,10,18,07,50,6.60
2008,10,18,07,51,6.60
2008,10,18,07,52,6.60
2008,10,18,07,53,6.40
2008,10,18,07,54,6.40
2008,10,18,07,55,6.40
2008,10,18,07,56,6.30
2008,10,18,07,57,6.30
2008,10,18,07,58,6.20
2008,10,18,07,59,6.20
2008,10,18,08,00,6.20
2008,10,18,08,01,6.20
2008,10,18,08,02,6.10
2008,10,18,08,03,6.10
2008,10,18,08,04,6.00
2008,10,18,08,05,6.00
2008,10,18,08,06,6.00
2008,10,18,08,07,6.00
2008,10,18,08,08,5.90
2008,10,18,08,09,5.90
2008,10,18,08,10,5.90
2008,10,18,08,11,5.90
2008,10,18,08,12,5.90
2008,10,18,08,13,5.90
2008,10,18,08,14,5.90
2008,10,18,08,15,5.90
2008,10,18,08,16,5.90
2008,10,18,08,17,5.90
2008,10,18,08,18,5.90
2008,10,18,08,19,5.90
2008,10,18,08,20,5.90
2008,10,18,08,21,5.90
2008,10,18,08,22,5.90
2008,10,18,08,23,5.90
2008,10,18,08,24,5.90
2008,10,18,08,25,5.90
2008,10,18,08,26,5.90
2008,10,18,08,27,5.90
2008,10,18,08,28,5.90
2008,10,18,08,29,6.00
2008,10,18,08,30,6.00
2008,10,18,08,31,6.00
2008,10,18,08,32,6.00
2008,10,18,08,33,6.00
2008,10,18,08,34,6.00
2008,10,18,08,35,6.10
2008,10,18,08,36,6.10
2008,10,18,08,37,6.10
2008,10,18,08,38,6.10
2008,10,18,08,39,6.10
2008,10,18,08,40,6.20
2008,10,18,08,41,6.20
2008,10,18,08,42,6.20
2008,10,18,08,43,6.20
2008,10,18,08,44,6.20
2008,10,18,08,45,6.20
2008,10,18,08,46,6.20
2008,10,18,08,47,6.30
2008,10,18,08,48,6.30
2008,10,18,08,49,6.40
2008,10,18,08,50,6.40
2008,10,18,08,51,6.40
2008,10,18,08,52,6.40
2008,10,18,08,53,6.50
2008,10,18,08,54,6.60
2008,10,18,08,55,6.60
2008,10,18,08,56,6.60
2008,10,18,08,57,6.70
2008,10,18,08,58,6.70
2008,10,18,08,59,6.70
2008,10,18,09,00,6.80
2008,10,18,09,01,6.80
2008,10,18,09,02,6.80
2008,10,18,09,03,6.80
2008,10,18,09,04,6.90
2008,10,18,09,05,7.00
2008,10,18,09,06,7.00
2008,10,18,09,07,7.10
2008,10,18,09,08,7.20
2008,10,18,09,09,7.20
2008,10,18,09,10,7.30
2008,10,18,09,11,7.30
2008,10,18,09,12,7.40
2008,10,18,09,13,7.40
2008,10,18,09,14,7.40
2008,10,18,09,15,7.50
2008,10,18,09,16,7.50
2008,10,18,09,17,7.60
2008,10,18,09,18,7.60
2008,10,18,09,19,7.70
2008,10,18,09,20,7.80
2008,10,18,09,21,7.80
2008,10,18,09,22,7.80
2008,10,18,09,23,7.90
2008,10,18,09,24,7.90
2008,10,18,09,25,8.00
2008,10,18,09,26,8.00
2008,10,18,09,27,8.10
2008,10,18,09,28,8.10
2008,10,18,09,29,8.20
2008,10,18,09,30,8.20
2008,10,18,09,31,8.20
2008,10,18,09,32,8.20
2008,10,18,09,33,8.30
2008,10,18,09,34,8.30
2008,10,18,09,35,8.40
2008,10,18,09,36,8.40
2008,10,18,09,37,8.50
2008,10,18,09,38,8.50
2008,10,18,09,39,8.60
2008,10,18,09,40,8.60
2008,10,18,09,41,8.70
2008,10,18,09,42,8.70
2008,10,18,09,43,8.80
2008,10,18,09,44,8.80
2008,10,18,09,45,8.90
2008,10,18,09,46,8.90
2008,10,18,09,47,9.00
2008,10,18,09,48,9.10
2008,10,18,09,49,9.10
2008,10,18,09,50,9.20
2008,10,18,09,51,9.30
2008,10,18,09,52,9.40
2008,10,18,09,53,9.60
2008,10,18,09,54,9.70
2008,10,18,09,55,9.80
2008,10,18,09,56,9.90
2008,10,18,09,57,10.10
2008,10,18,09,58,10.20
2008,10,18,09,59,10.30
2008,10,18,10,00,10.40
2008,10,18,10,01,10.50
2008,10,18,10,02,10.60
2008,10,18,10,03,10.60
2008,10,18,10,04,10.60
2008,10,18,10,05,10.60
2008,10,18,10,06,10.60
2008,10,18,10,07,10.70
2008,10,18,10,08,10.80
2008,10,18,10,09,10.90
2008,10,18,10,10,11.00
2008,10,18,10,11,10.90
2008,10,18,10,12,10.90
2008,10,18,10,13,10.80
2008,10,18,10,14,10.80
2008,10,18,10,15,10.80
2008,10,18,10,16,10.80
2008,10,18,10,17,10.90
2008,10,18,10,18,10.90
2008,10,18,10,19,10.90
2008,10,18,10,20,11.00
2008,10,18,10,21,11.10
2008,10,18,10,22,11.10
2008,10,18,10,23,11.10
2008,10,18,10,24,11.10
2008,10,18,10,25,11.10
2008,10,18,10,26,11.10
2008,10,18,10,27,11.10
2008,10,18,10,28,11.10
2008,10,18,10,29,11.10
2008,10,18,10,30,11.10
2008,10,18,10,31,11.10
2008,10,18,10,32,11.10
2008,10,18,10,33,11.10
2008,10,18,10,34,11.10
2008,10,18,10,35,11.00
2008,10,18,10,36,10.90
2008,10,18,10,37,10.80
2008,10,18,10,38,10.70
2008,10,18,10,39,10.60
2008,10,18,10,40,10.60
2008,10,18,10,41,10.60
2008,10,18,10,42,10.70
2008,10,18,10,43,10.70
2008,10,18,10,44,10.60
2008,10,18,10,45,10.60
2008,10,18,10,46,10.60
2008,10,18,10,47,10.60
2008,10,18,10,48,10.70
2008,10,18,10,49,10.80
2008,10,18,10,50,10.90
2008,10,18,10,51,10.80
2008,10,18,10,52,10.90
2008,10,18,10,53,10.90
2008,10,18,10,54,10.90
2008,10,18,10,55,10.90
2008,10,18,10,56,10.90
2008,10,18,10,57,10.90
2008,10,18,10,58,11.00
2008,10,18,10,59,11.10
2008,10,18,11,00,11.10
2008,10,18,11,01,11.10
2008,10,18,11,02,11.10
2008,10,18,11,03,11.10
2008,10,18,11,04,11.10
2008,10,18,11,05,11.20
2008,10,18,11,06,11.20
2008,10,18,11,07,11.20
2008,10,18,11,08,11.30
2008,10,18,11,09,11.40
2008,10,18,11,10,11.40
2008,10,18,11,11,11.60
2008,10,18,11,12,11.60
2008,10,18,11,13,11.70
2008,10,18,11,14,11.80
2008,10,18,11,15,11.80
2008,10,18,11,16,11.80
2008,10,18,11,17,11.70
2008,10,18,11,18,11.80
2008,10,18,11,19,11.80
2008,10,18,11,20,11.80
2008,10,18,11,21,11.80
2008,10,18,11,22,11.90
2008,10,18,11,23,11.90
2008,10,18,11,24,12.00
2008,10,18,11,25,12.00
2008,10,18,11,26,12.00
2008,10,18,11,27,11.90
2008,10,18,11,28,11.80
2008,10,18,11,29,11.70
2008,10,18,11,30,11.60
2008,10,18,11,31,11.40
2008,10,18,11,32,11.40
2008,10,18,11,33,11.40
2008,10,18,11,34,11.40
2008,10,18,11,35,11.30
2008,10,18,11,36,11.30
2008,10,18,11,37,11.30
2008,10,18,11,38,11.20
2008,10,18,11,39,11.20
2008,10,18,11,40,11.20
2008,10,18,11,41,11.20
2008,10,18,11,42,11.20
2008,10,18,11,43,11.10
2008,10,18,11,44,11.10
2008,10,18,11,45,11.20
2008,10,18,11,46,11.30
2008,10,18,11,47,11.40
2008,10,18,11,48,11.40
2008,10,18,11,49,11.30
2008,10,18,11,50,11.30
2008,10,18,11,51,11.20
2008,10,18,11,52,11.20
2008,10,18,11,53,11.10
2008,10,18,11,54,11.10
2008,10,18,11,55,11.10
2008,10,18,11,56,11.00
2008,10,18,11,57,10.90
2008,10,18,11,58,11.00
2008,10,18,11,59,11.10
2008,10,18,12,00,11.20
2008,10,18,12,01,11.30
2008,10,18,12,02,11.40
2008,10,18,12,03,11.50
2008,10,18,12,04,11.60
2008,10,18,12,05,11.50
2008,10,18,12,06,11.40
2008,10,18,12,07,11.40
2008,10,18,12,08,11.40
2008,10,18,12,09,11.40
2008,10,18,12,10,11.40
2008,10,18,12,11,11.40
2008,10,18,12,12,11.40
2008,10,18,12,13,11.40
2008,10,18,12,14,11.40
2008,10,18,12,15,11.40
2008,10,18,12,16,11.60
2008,10,18,12,17,11.60
2008,10,18,12,18,11.60
2008,10,18,12,19,11.70
2008,10,18,12,20,11.70
2008,10,18,12,21,11.80
2008,10,18,12,22,11.80
2008,10,18,12,23,11.80
2008,10,18,12,24,11.90
2008,10,18,12,25,11.90
2008,10,18,12,26,11.90
2008,10,18,12,27,11.90
2008,10,18,12,28,11.90
2008,10,18,12,29,11.90
2008,10,18,12,30,11.90
2008,10,18,12,31,11.80
2008,10,18,12,32,11.80
2008,10,18,12,33,11.80
2008,10,18,12,34,11.80
2008,10,18,12,35,11.80
2008,10,18,12,36,11.80
2008,10,18,12,37,11.80
2008,10,18,12,38,11.80
2008,10,18,12,39,11.80
2008,10,18,12,40,11.80
2008,10,18,12,41,11.80
2008,10,18,12,42,12.00
2008,10,18,12,43,12.00
2008,10,18,12,44,12.00
2008,10,18,12,45,12.10
2008,10,18,12,46,12.10
2008,10,18,12,47,12.10
2008,10,18,12,48,12.10
2008,10,18,12,49,12.10
2008,10,18,12,50,12.00
2008,10,18,12,51,11.90
2008,10,18,12,52,11.80
2008,10,18,12,53,11.80
2008,10,18,12,54,11.80
2008,10,18,12,55,11.80
2008,10,18,12,56,11.80
2008,10,18,12,57,11.90
2008,10,18,12,58,11.90
2008,10,18,12,59,12.00
2008,10,18,13,00,12.00
2008,10,18,13,01,12.00
2008,10,18,13,02,12.00
2008,10,18,13,03,11.80
2008,10,18,13,04,11.70
2008,10,18,13,05,11.50
2008,10,18,13,06,11.40
2008,10,18,13,07,11.20
2008,10,18,13,08,11.00
2008,10,18,13,09,10.90
2008,10,18,13,10,10.90
2008,10,18,13,11,10.90
2008,10,18,13,12,10.90
2008,10,18,13,13,11.00
2008,10,18,13,14,11.10
2008,10,18,13,15,11.10
2008,10,18,13,16,11.20
2008,10,18,13,17,11.30
2008,10,18,13,18,11.40
2008,10,18,13,19,11.50
2008,10,18,13,20,11.60
2008,10,18,13,21,11.60
2008,10,18,13,22,11.40
2008,10,18,13,23,11.40
2008,10,18,13,24,11.40
2008,10,18,13,25,11.40
2008,10,18,13,26,11.50
2008,10,18,13,27,11.60
2008,10,18,13,28,11.50
2008,10,18,13,29,11.50
2008,10,18,13,30,11.60
2008,10,18,13,31,11.60
2008,10,18,13,32,11.70
2008,10,18,13,33,11.70
2008,10,18,13,34,11.70
2008,10,18,13,35,11.70
2008,10,18,13,36,11.60
2008,10,18,13,37,11.60
2008,10,18,13,38,11.70
2008,10,18,13,39,11.70
2008,10,18,13,40,11.80
2008,10,18,13,41,11.90
2008,10,18,13,42,11.90
2008,10,18,13,43,11.90
2008,10,18,13,44,11.90
2008,10,18,13,45,11.90
2008,10,18,13,46,11.90
2008,10,18,13,47,11.80
2008,10,18,13,48,11.70
2008,10,18,13,49,11.60
2008,10,18,13,50,11.60
2008,10,18,13,51,11.60
2008,10,18,13,52,11.50
2008,10,18,13,53,11.40
2008,10,18,13,54,11.40
2008,10,18,13,55,11.40
2008,10,18,13,56,11.30
2008,10,18,13,57,11.30
2008,10,18,13,58,11.20
2008,10,18,13,59,11.30
2008,10,18,14,00,11.30
2008,10,18,14,01,11.20
2008,10,18,14,02,11.30
2008,10,18,14,03,11.40
2008,10,18,14,04,11.40
2008,10,18,14,05,11.50
2008,10,18,14,06,11.60
2008,10,18,14,07,11.60
2008,10,18,14,08,11.60
2008,10,18,14,09,11.60
2008,10,18,14,10,11.60
2008,10,18,14,11,11.60
2008,10,18,14,12,11.60
2008,10,18,14,13,11.50
2008,10,18,14,14,11.50
2008,10,18,14,15,11.60
2008,10,18,14,16,11.60
2008,10,18,14,17,11.70
2008,10,18,14,18,11.80
2008,10,18,14,19,11.80
2008,10,18,14,20,11.90
2008,10,18,14,21,12.00
2008,10,18,14,22,11.90
2008,10,18,14,23,11.90
2008,10,18,14,24,11.90
2008,10,18,14,25,11.80
2008,10,18,14,26,11.90
2008,10,18,14,27,11.90
2008,10,18,14,28,12.00
2008,10,18,14,29,12.00
2008,10,18,14,30,12.10
2008,10,18,14,31,12.10
2008,10,18,14,32,12.00
2008,10,18,14,33,11.90
2008,10,18,14,34,11.90
2008,10,18,14,35,11.90
2008,10,18,14,36,12.00
2008,10,18,14,37,12.00
2008,10,18,14,38,12.00
2008,10,18,14,39,12.00
2008,10,18,14,40,11.80
2008,10,18,14,41,11.80
2008,10,18,14,42,11.70
2008,10,18,14,43,11.70
2008,10,18,14,44,11.70
2008,10,18,14,45,11.70
2008,10,18,14,46,11.70
2008,10,18,14,47,11.70
2008,10,18,14,48,11.70
2008,10,18,14,49,11.70
2008,10,18,14,50,11.80
2008,10,18,14,51,11.80
2008,10,18,14,52,11.80
2008,10,18,14,53,11.80
2008,10,18,14,54,11.70
2008,10,18,14,55,11.70
2008,10,18,14,56,11.70
2008,10,18,14,57,11.80
2008,10,18,14,58,11.70
2008,10,18,14,59,11.70
2008,10,18,15,00,11.80
2008,10,18,15,01,11.80
2008,10,18,15,02,11.80
2008,10,18,15,03,11.80
2008,10,18,15,04,11.80
2008,10,18,15,05,11.80
2008,10,18,15,06,11.80
2008,10,18,15,07,11.80
2008,10,18,15,08,11.80
2008,10,18,15,09,11.90
2008,10,18,15,10,12.00
2008,10,18,15,11,12.00
2008,10,18,15,12,12.10
2008,10,18,15,13,12.10
2008,10,18,15,14,12.10
2008,10,18,15,15,12.10
2008,10,18,15,16,12.20
2008,10,18,15,17,12.20
2008,10,18,15,18,12.10
2008,10,18,15,19,12.00
2008,10,18,15,20,12.00
2008,10,18,15,21,12.00
2008,10,18,15,22,11.90
2008,10,18,15,23,12.00
2008,10,18,15,24,12.10
2008,10,18,15,25,12.20
2008,10,18,15,26,12.20
2008,10,18,15,27,12.30
2008,10,18,15,28,12.20
2008,10,18,15,29,12.20
2008,10,18,15,30,12.20
2008,10,18,15,31,12.20
2008,10,18,15,32,12.20
2008,10,18,15,33,12.20
2008,10,18,15,34,12.30
2008,10,18,15,35,12.30
2008,10,18,15,36,12.30
2008,10,18,15,37,12.30
2008,10,18,15,38,12.30
2008,10,18,15,39,12.30
2008,10,18,15,40,12.30
2008,10,18,15,41,12.30
2008,10,18,15,42,12.30
2008,10,18,15,43,12.30
2008,10,18,15,44,12.30
2008,10,18,15,45,12.30
2008,10,18,15,46,12.30
2008,10,18,15,47,12.30
2008,10,18,15,48,12.30
2008,10,18,15,49,12.30
2008,10,18,15,50,12.30
2008,10,18,15,51,12.30
2008,10,18,15,52,12.30
2008,10,18,15,53,12.30
2008,10,18,15,54,12.30
2008,10,18,15,55,12.20
2008,10,18,15,56,12.10
2008,10,18,15,57,12.10
2008,10,18,15,58,12.20
2008,10,18,15,59,12.20
2008,10,18,16,00,12.20
2008,10,18,16,01,12.20
2008,10,18,16,02,12.10
2008,10,18,16,03,12.10
2008,10,18,16,04,12.10
2008,10,18,16,05,12.10
2008,10,18,16,06,12.10
2008,10,18,16,07,12.10
2008,10,18,16,08,12.00
2008,10,18,16,09,12.10
2008,10,18,16,10,12.00
2008,10,18,16,11,12.00
2008,10,18,16,12,11.90
2008,10,18,16,13,11.90
2008,10,18,16,14,11.90
2008,10,18,16,15,12.00
2008,10,18,16,16,12.00
2008,10,18,16,17,12.00
2008,10,18,16,18,12.10
2008,10,18,16,19,12.10
2008,10,18,16,20,12.00
2008,10,18,16,21,11.90
2008,10,18,16,22,11.90
2008,10,18,16,23,12.00
2008,10,18,16,24,12.00
2008,10,18,16,25,12.00
2008,10,18,16,26,12.00
2008,10,18,16,27,12.10
2008,10,18,16,28,12.10
2008,10,18,16,29,12.10
2008,10,18,16,30,12.00
2008,10,18,16,31,12.00
2008,10,18,16,32,11.90
2008,10,18,16,33,11.80
2008,10,18,16,34,11.80
2008,10,18,16,35,11.80
2008,10,18,16,36,11.70
2008,10,18,16,37,11.70
2008,10,18,16,38,11.60
2008,10,18,16,39,11.60
2008,10,18,16,40,11.70
2008,10,18,16,41,11.70
2008,10,18,16,42,11.70
2008,10,18,16,43,11.70
2008,10,18,16,44,11.80
2008,10,18,16,45,11.70
2008,10,18,16,46,11.70
2008,10,18,16,47,11.60
2008,10,18,16,48,11.60
2008,10,18,16,49,11.60
2008,10,18,16,50,11.40
2008,10,18,16,51,11.40
2008,10,18,16,52,11.40
2008,10,18,16,53,11.40
2008,10,18,16,54,11.40
2008,10,18,16,55,11.40
2008,10,18,16,56,11.40
2008,10,18,16,57,11.40
2008,10,18,16,58,11.40
2008,10,18,16,59,11.40
2008,10,18,17,00,11.40
2008,10,18,17,01,11.40
2008,10,18,17,02,11.40
2008,10,18,17,03,11.50
2008,10,18,17,04,11.60
2008,10,18,17,05,11.60
2008,10,18,17,06,11.60
2008,10,18,17,07,11.60
2008,10,18,17,08,11.60
2008,10,18,17,09,11.60
2008,10,18,17,10,11.60
2008,10,18,17,11,11.60
2008,10,18,17,12,11.60
2008,10,18,17,13,11.60
2008,10,18,17,14,11.50
2008,10,18,17,15,11.40
2008,10,18,17,16,11.40
2008,10,18,17,17,11.40
2008,10,18,17,18,11.40
2008,10,18,17,19,11.40
2008,10,18,17,20,11.40
2008,10,18,17,21,11.40
2008,10,18,17,22,11.40
2008,10,18,17,23,11.40
2008,10,18,17,24,11.40
2008,10,18,17,25,11.30
2008,10,18,17,26,11.30
2008,10,18,17,27,11.30
2008,10,18,17,28,11.30
2008,10,18,17,29,11.30
2008,10,18,17,30,11.30
2008,10,18,17,31,11.30
2008,10,18,17,32,11.30
2008,10,18,17,33,11.30
2008,10,18,17,34,11.30
2008,10,18,17,35,11.30
2008,10,18,17,36,11.20
2008,10,18,17,37,11.30
2008,10,18,17,38,11.30
2008,10,18,17,39,11.30
2008,10,18,17,40,11.30
2008,10,18,17,41,11.30
2008,10,18,17,42,11.40
2008,10,18,17,43,11.30
2008,10,18,17,44,11.30
2008,10,18,17,45,11.30
2008,10,18,17,46,11.30
2008,10,18,17,47,11.20
2008,10,18,17,48,11.20
2008,10,18,17,49,11.20
2008,10,18,17,50,11.10
2008,10,18,17,51,11.10
2008,10,18,17,52,11.00
2008,10,18,17,53,10.90
2008,10,18,17,54,10.90
2008,10,18,17,55,10.90
2008,10,18,17,56,10.90
2008,10,18,17,57,10.80
2008,10,18,17,58,10.80
2008,10,18,17,59,10.70
2008,10,18,18,00,10.60
2008,10,18,18,01,10.60
2008,10,18,18,02,10.60
2008,10,18,18,03,10.50
2008,10,18,18,04,10.40
2008,10,18,18,05,10.40
2008,10,18,18,06,10.40
2008,10,18,18,07,10.30
2008,10,18,18,08,10.30
2008,10,18,18,09,10.20
2008,10,18,18,10,10.20
2008,10,18,18,11,10.20
2008,10,18,18,12,10.10
2008,10,18,18,13,10.10
2008,10,18,18,14,10.10
2008,10,18,18,15,9.90
2008,10,18,18,16,9.90
2008,10,18,18,17,9.90
2008,10,18,18,18,9.80
2008,10,18,18,19,9.80
2008,10,18,18,20,9.70
2008,10,18,18,21,9.70
2008,10,18,18,22,9.70
2008,10,18,18,23,9.60
2008,10,18,18,24,9.50
2008,10,18,18,25,9.50
2008,10,18,18,26,9.50
2008,10,18,18,27,9.40
2008,10,18,18,28,9.30
2008,10,18,18,29,9.30
2008,10,18,18,30,9.20
2008,10,18,18,31,9.20
2008,10,18,18,32,9.10
2008,10,18,18,33,9.00
2008,10,18,18,34,9.00
2008,10,18,18,35,8.90
2008,10,18,18,36,8.90
2008,10,18,18,37,8.80
2008,10,18,18,38,8.80
2008,10,18,18,39,8.70
2008,10,18,18,40,8.70
2008,10,18,18,41,8.70
2008,10,18,18,42,8.60
2008,10,18,18,43,8.60
2008,10,18,18,44,8.50
2008,10,18,18,45,8.50
2008,10,18,18,46,8.50
2008,10,18,18,47,8.40
2008,10,18,18,48,8.40
2008,10,18,18,49,8.30
2008,10,18,18,50,8.30
2008,10,18,18,51,8.20
2008,10,18,18,52,8.20
2008,10,18,18,53,8.20
2008,10,18,18,54,8.20
2008,10,18,18,55,8.10
2008,10,18,18,56,8.10
2008,10,18,18,57,8.10
2008,10,18,18,58,8.00
2008,10,18,18,59,8.00
2008,10,18,19,00,8.00
2008,10,18,19,01,7.90
2008,10,18,19,02,7.90
2008,10,18,19,03,7.80
2008,10,18,19,04,7.80
2008,10,18,19,05,7.80
2008,10,18,19,06,7.80
2008,10,18,19,07,7.80
2008,10,18,19,08,7.70
2008,10,18,19,09,7.70
2008,10,18,19,10,7.70
2008,10,18,19,11,7.60
2008,10,18,19,12,7.60
2008,10,18,19,13,7.50
2008,10,18,19,14,7.50
2008,10,18,19,15,7.50
2008,10,18,19,16,7.50
2008,10,18,19,17,7.50
2008,10,18,19,18,7.50
2008,10,18,19,19,7.50
2008,10,18,19,20,7.50
2008,10,18,19,21,7.50
2008,10,18,19,22,7.50
2008,10,18,19,23,7.40
2008,10,18,19,24,7.40
2008,10,18,19,25,7.40
2008,10,18,19,26,7.40
2008,10,18,19,27,7.40
2008,10,18,19,28,7.40
2008,10,18,19,29,7.30
2008,10,18,19,30,7.30
2008,10,18,19,31,7.30
2008,10,18,19,32,7.30
2008,10,18,19,33,7.30
2008,10,18,19,34,7.30
2008,10,18,19,35,7.30
2008,10,18,19,36,7.30
2008,10,18,19,37,7.20
2008,10,18,19,38,7.20
2008,10,18,19,39,7.20
2008,10,18,19,40,7.10
2008,10,18,19,41,7.10
2008,10,18,19,42,7.10
2008,10,18,19,43,7.10
2008,10,18,19,44,7.10
2008,10,18,19,45,7.00
2008,10,18,19,46,7.00
2008,10,18,19,47,7.00
2008,10,18,19,48,7.00
2008,10,18,19,49,7.00
2008,10,18,19,50,7.00
2008,10,18,19,51,6.90
2008,10,18,19,52,6.90
2008,10,18,19,53,6.90
2008,10,18,19,54,6.90
2008,10,18,19,55,6.90
2008,10,18,19,56,6.90
2008,10,18,19,57,6.90
2008,10,18,19,58,6.90
2008,10,18,19,59,6.90
2008,10,18,20,00,6.90
2008,10,18,20,01,6.90
2008,10,18,20,02,6.90
2008,10,18,20,03,6.80
2008,10,18,20,04,6.80
2008,10,18,20,05,6.80
2008,10,18,20,06,6.80
2008,10,18,20,07,6.80
2008,10,18,20,08,6.80
2008,10,18,20,09,6.70
2008,10,18,20,10,6.70
2008,10,18,20,11,6.70
2008,10,18,20,12,6.70
2008,10,18,20,13,6.70
2008,10,18,20,14,6.70
2008,10,18,20,15,6.70
2008,10,18,20,16,6.70
2008,10,18,20,17,6.60
2008,10,18,20,18,6.60
2008,10,18,20,19,6.60
2008,10,18,20,20,6.60
2008,10,18,20,21,6.60
2008,10,18,20,22,6.60
2008,10,18,20,23,6.60
2008,10,18,20,24,6.60
2008,10,18,20,25,6.60
2008,10,18,20,26,6.60
2008,10,18,20,27,6.50
2008,10,18,20,28,6.40
2008,10,18,20,29,6.40
2008,10,18,20,30,6.40
2008,10,18,20,31,6.40
2008,10,18,20,32,6.40
2008,10,18,20,33,6.40
2008,10,18,20,34,6.30
2008,10,18,20,35,6.30
2008,10,18,20,36,6.30
2008,10,18,20,37,6.20
2008,10,18,20,38,6.20
2008,10,18,20,39,6.20
2008,10,18,20,40,6.20
2008,10,18,20,41,6.20
2008,10,18,20,42,6.10
2008,10,18,20,43,6.10
2008,10,18,20,44,6.00
2008,10,18,20,45,6.00
2008,10,18,20,46,6.00
2008,10,18,20,47,5.90
2008,10,18,20,48,5.90
2008,10,18,20,49,5.90
2008,10,18,20,50,5.90
2008,10,18,20,51,5.80
2008,10,18,20,52,5.80
2008,10,18,20,53,5.80
2008,10,18,20,54,5.70
2008,10,18,20,55,5.70
2008,10,18,20,56,5.70
2008,10,18,20,57,5.70
2008,10,18,20,58,5.70
2008,10,18,20,59,5.70
2008,10,18,21,00,5.70
2008,10,18,21,01,5.70
2008,10,18,21,02,5.70
2008,10,18,21,03,5.60
2008,10,18,21,04,5.60
2008,10,18,21,05,5.60
2008,10,18,21,06,5.60
2008,10,18,21,07,5.60
2008,10,18,21,08,5.60
2008,10,18,21,09,5.50
2008,10,18,21,10,5.50
2008,10,18,21,11,5.50
2008,10,18,21,12,5.50
2008,10,18,21,13,5.50
2008,10,18,21,14,5.50
2008,10,18,21,15,5.50
2008,10,18,21,16,5.50
2008,10,18,21,17,5.40
2008,10,18,21,18,5.40
2008,10,18,21,19,5.40
2008,10,18,21,20,5.40
2008,10,18,21,21,5.40
2008,10,18,21,22,5.40
2008,10,18,21,23,5.40
2008,10,18,21,24,5.40
2008,10,18,21,25,5.40
2008,10,18,21,26,5.40
2008,10,18,21,27,5.40
2008,10,18,21,28,5.40
2008,10,18,21,29,5.30
2008,10,18,21,30,5.30
2008,10,18,21,31,5.30
2008,10,18,21,32,5.30
2008,10,18,21,33,5.30
2008,10,18,21,34,5.30
2008,10,18,21,35,5.30
2008,10,18,21,36,5.30
2008,10,18,21,37,5.30
2008,10,18,21,38,5.30
2008,10,18,21,39,5.30
2008,10,18,21,40,5.30
2008,10,18,21,41,5.30
2008,10,18,21,42,5.30
2008,10,18,21,43,5.30
2008,10,18,21,44,5.20
2008,10,18,21,45,5.20
2008,10,18,21,46,5.20
2008,10,18,21,47,5.20
2008,10,18,21,48,5.20
2008,10,18,21,49,5.20
2008,10,18,21,50,5.20
2008,10,18,21,51,5.20
2008,10,18,21,52,5.20
2008,10,18,21,53,5.20
2008,10,18,21,54,5.20
2008,10,18,21,55,5.20
2008,10,18,21,56,5.10
2008,10,18,21,57,5.10
2008,10,18,21,58,5.10
2008,10,18,21,59,5.10
2008,10,18,22,00,5.10
2008,10,18,22,01,5.10
2008,10,18,22,02,5.10
2008,10,18,22,03,5.10
2008,10,18,22,04,5.10
2008,10,18,22,05,5.10
2008,10,18,22,06,5.10
2008,10,18,22,07,5.00
2008,10,18,22,08,4.90
2008,10,18,22,09,4.90
2008,10,18,22,10,4.90
2008,10,18,22,11,4.90
2008,10,18,22,12,4.90
2008,10,18,22,13,4.90
2008,10,18,22,14,4.90
2008,10,18,22,15,4.90
2008,10,18,22,16,4.90
2008,10,18,22,17,4.90
2008,10,18,22,18,4.90
2008,10,18,22,19,4.90
2008,10,18,22,20,4.90
2008,10,18,22,21,4.90
2008,10,18,22,22,4.90
2008,10,18,22,23,4.90
2008,10,18,22,24,4.90
2008,10,18,22,25,4.90
2008,10,18,22,26,4.90
2008,10,18,22,27,4.90
2008,10,18,22,28,4.90
2008,10,18,22,29,4.90
2008,10,18,22,30,4.90
2008,10,18,22,31,4.90
2008,10,18,22,32,4.90
2008,10,18,22,33,4.90
2008,10,18,22,34,4.80
2008,10,18,22,35,4.80
2008,10,18,22,36,4.80
2008,10,18,22,37,4.80
2008,10,18,22,38,4.80
2008,10,18,22,39,4.70
2008,10,18,22,40,4.70
2008,10,18,22,41,4.70
2008,10,18,22,42,4.70
2008,10,18,22,43,4.70
2008,10,18,22,44,4.70
2008,10,18,22,45,4.60
2008,10,18,22,46,4.60
2008,10,18,22,47,4.60
2008,10,18,22,48,4.60
2008,10,18,22,49,4.60
2008,10,18,22,50,4.60
2008,10,18,22,51,4.60
2008,10,18,22,52,4.60
2008,10,18,22,53,4.60
2008,10,18,22,54,4.60
2008,10,18,22,55,4.60
2008,10,18,22,56,4.60
2008,10,18,22,57,4.60
2008,10,18,22,58,4.60
2008,10,18,22,59,4.60
2008,10,18,23,00,4.60
2008,10,18,23,01,4.60
2008,10,18,23,02,4.60
2008,10,18,23,03,4.60
2008,10,18,23,04,4.60
2008,10,18,23,05,4.60
2008,10,18,23,06,4.60
2008,10,18,23,07,4.60
2008,10,18,23,08,4.60
2008,10,18,23,09,4.60
2008,10,18,23,10,4.60
2008,10,18,23,11,4.60
2008,10,18,23,12,4.60
2008,10,18,23,13,4.60
2008,10,18,23,14,4.70
2008,10,18,23,15,4.70
2008,10,18,23,16,4.70
2008,10,18,23,17,4.70
2008,10,18,23,18,4.80
2008,10,18,23,19,4.80
2008,10,18,23,20,4.80
2008,10,18,23,21,4.90
2008,10,18,23,22,4.90
2008,10,18,23,23,4.90
2008,10,18,23,24,4.90
2008,10,18,23,25,4.90
2008,10,18,23,26,4.90
2008,10,18,23,27,4.90
2008,10,18,23,28,4.90
2008,10,18,23,29,4.90
2008,10,18,23,30,4.90
2008,10,18,23,31,4.90
2008,10,18,23,32,4.90
2008,10,18,23,33,4.90
2008,10,18,23,34,4.90
2008,10,18,23,35,4.90
2008,10,18,23,36,4.90
2008,10,18,23,37,4.90
2008,10,18,23,38,4.90
2008,10,18,23,39,4.80
2008,10,18,23,40,4.80
2008,10,18,23,41,4.80
2008,10,18,23,42,4.70
2008,10,18,23,43,4.70
2008,10,18,23,44,4.70
2008,10,18,23,45,4.70
2008,10,18,23,46,4.60
2008,10,18,23,47,4.60
2008,10,18,23,48,4.60
2008,10,18,23,49,4.60
2008,10,18,23,50,4.60
2008,10,18,23,51,4.60
2008,10,18,23,52,4.60
2008,10,18,23,53,4.60
2008,10,18,23,54,4.60
2008,10,18,23,55,4.60
2008,10,18,23,56,4.60
2008,10,18,23,57,4.60
2008,10,18,23,58,4.60
2008,10,18,23,59,4.60
